Location: Mississauga
(43.5802°N, 79.6166°W)
Time: 20:23:23
(UTC-04:00)

Cosmos 1437 Rocket - Visible Passes

Search period start: 20 August 2014 00:00
Search period end: 30 August 2014 00:00
Orbit: 525 x 569 km, 81.2° (Epoch: 20 August)

Date Brightness Start Highest point End Pass type
(mag) Time Alt. Az. Time Alt. Az. Time Alt. Az.
20 Aug 3.5 21:30:25 10° N 21:34:05 36° ENE 21:35:39 25° ESE visible
20 Aug 5.2 23:07:49 10° NW 23:10:16 16° W 23:11:19 15° WSW visible
21 Aug 3.3 21:25:08 10° N 21:28:51 39° ENE 21:30:44 23° SE visible
21 Aug 5.3 23:02:45 10° NW 23:04:59 15° W 23:06:24 13° WSW visible
22 Aug 3.2 21:19:51 10° N 21:23:36 42° ENE 21:25:51 21° SE visible
22 Aug 5.5 22:57:43 10° WNW 22:59:42 14° W 23:01:31 10° WSW visible
23 Aug 3.1 21:14:34 10° N 21:18:22 46° ENE 21:21:00 18° SE visible
23 Aug 5.6 22:52:44 10° WNW 22:54:25 12° W 22:56:05 10° WSW visible
24 Aug 2.9 21:09:17 10° N 21:13:07 51° ENE 21:16:12 15° SSE visible
24 Aug 5.7 22:47:50 10° WNW 22:49:07 11° W 22:50:24 10° WSW visible
25 Aug 2.8 21:04:01 10° N 21:07:53 56° ENE 21:11:27 12° SSE visible
25 Aug 5.8 22:43:08 10° WNW 22:43:50 10° W 22:44:31 10° W visible
26 Aug 2.8 20:58:44 10° N 21:02:38 61° ENE 21:06:27 10° SSE visible
27 Aug 2.7 20:53:28 10° N 20:57:22 68° ENE 21:01:13 10° SSE visible
28 Aug 2.7 20:48:12 10° N 20:52:07 74° E 20:55:59 10° SSE visible
29 Aug 2.7 20:42:56 10° N 20:46:51 81° E 20:50:44 10° SSE visible
